Regional Weather Roundup
Issued by NWS

Home | Current Version | Previous Version | Graphics & Text | Print | Product List | Glossary On
Versions: 1 2 3 4 5 6 7 8 9 10 11 12 13 14 15 16 17 18 19 20 21 22 23 24 25 26 27
000
ASUS45 KBOU 262007
RWRCO

WEATHER ROUNDUP FOR COLORADO
NATIONAL WEATHER SERVICE DENVER/BOULDER CO
100 PM MST SUN FEB 26 2017

NOTE: "FAIR" INDICATES FEW OR NO CLOUDS BELOW 12000 FEET WITH NO
SIGNIFICANT WEATHER AND/OR OBSTRUCTIONS TO VISIBILITY.

COZ001>005-013-030-031-262100-
...NORTHWEST COLORADO...

CITY           SKY/WX    TMP DP  RH WIND       PRES   REMARKS
CRAIG          FAIR      28   2  32 W16G23    29.87F WCI  16
HAYDEN         FAIR      21   3  45 NW3       29.86F
MEEKER         FAIR      27   5  39 CALM      29.86F
MOUNT WERNER   NOT AVBL
STEAMBOAT SPGS FAIR      23  -2  33 CALM      29.86F
WALDEN         NOT AVBL
$$

COZ006>008-011-262100-
...WEST CENTRAL VALLEYS...

CITY           SKY/WX    TMP DP  RH WIND       PRES   REMARKS
GRAND JUNCTION FAIR      38   7  27 CALM      29.92F
MONTROSE       FAIR      37   9  31 NE3       29.91F
EAGLE          MOSUNNY   32   3  29 SW12G25   29.88F WCI  23
RIFLE          FAIR      34   8  33 SW8       29.91F WCI  27
DELTA          FAIR      41   6  23 E3        29.92F
NUCLA          PTSUNNY   36   9  32 W5        29.94F
$$

COZ017>023-064>068-262100-
...SOUTHWEST COLORADO...

CITY           SKY/WX    TMP DP  RH WIND       PRES   REMARKS
DURANGO        FAIR      37  11  34 W15G22    29.88F
CORTEZ         PTSUNNY   40  14  34 W8        29.90F
PAGOSA SPRINGS CLOUDY    34   3  27 SW13G21   29.86F WCI  25
TELLURIDE      FAIR      25   3  39 W8G16     29.86F WCI  16
WOLF CREEK PAS CLOUDY     9   9 100 S18G25    29.81F FOG     WCI -10
$$

COZ009-010-012-014-032>034-037-058>063-262100-
...CENTRAL COLORADO...

CITY           SKY/WX    TMP DP  RH WIND       PRES   REMARKS
ASPEN          FAIR      26   0  32 NW7       29.82F WCI  18
BUENA VISTA    FAIR      31 -10  16 W30G40    29.76F WCI  17
COPPER MTN     NOT AVBL
BERTHOUD PASS  FAIR       0 -11  60 NW24G31   29.64S WCI -24
COTTONWOOD PAS FAIR      23  -8  25 W22G37    29.72S WCI   8
GUNNISON       FAIR      21  11  65 E7        29.88F WCI  12
KREMMLING      FAIR      34   3  27 S7        29.83F WCI  28
LEADVILLE      FAIR      15  -8  35 W17G25    29.75F WCI  -1
MONARCH PASS     N/A      5   1  85 W33G44    29.82S WCI -20
SALIDA         FAIR      34  -4  19 W23G32    29.86F WCI  22
SUNLIGHT       NOT AVBL
WILKERSON PASS FAIR      19 -17  19 W12G21    29.70F WCI   7
$$

COZ069>075-262100-
...SAN LUIS VALLEY/SANGRE DE CRISTO MOUNTAINS...

CITY           SKY/WX    TMP DP  RH WIND       PRES   REMARKS
ALAMOSA        PTSUNNY   34   6  31 W6        29.81F WCI  29
LA VETA PASS   FAIR      27   5  39 SW24G37   29.73S WCI  12
SAGUACHE       FAIR      32   0  25 NW23G31   29.81F WCI  19
$$

COZ035-036-038>040-262100-
...NORTHERN COLORADO FRONT RANGE...

CITY           SKY/WX    TMP DP  RH WIND       PRES   REMARKS
DENVER INTL AP FAIR      40  -5  14 VRB7      29.76F
DMNS CITY PARK   N/A     41  -6  13 W3G13     29.74F
AURORA         MOSUNNY   38  -7  14 W3        29.76F
FRONT RANGE AP SUNNY     41  -6  13 SW7G16    29.77F
ERIE MUNI ARPT FAIR      40  -5  15 CALM      29.76F
BOULDER MUN AP FAIR      36  10  35 NW8       29.76F
CENTENNIAL     FAIR      39  -6  14 N9        29.74F
BROOMFIELD     SUNNY     39   0  19 W14       29.75F
FORT COLLINS   FAIR      37   7  28 VRB5      29.79F
LONGMONT       FAIR      40  11  30 CALM      29.79F
$$

COZ041-046-047-076>085-087-088-262100-
...PIKES PEAK/PALMER DIVIDE AND SOUTHERN FOOTHILLS...

CITY           SKY/WX    TMP DP  RH WIND       PRES   REMARKS
COLO. SPRINGS  FAIR      40 -11  11 VRB5      29.75F
A. F. ACADEMY  FAIR      38  -9  13 SE7G18    29.72F
SCHRIEVER AFB  FAIR      38  -7  14 S6        29.75F
ELLICOTT       NOT AVBL
FALCON         FAIR      38  -9  13 S7        29.75F
FORT CARSON    FAIR      42  -8  11 VRB5      29.73F
LIMON          FAIR      38   0  20 SE8       29.79F
MONUMENT HILL  FAIR      32  -6  19 E6        29.74F WCI  26
TRINIDAD       FAIR      46   1  15 MISG      29.77F
$$

COZ042>045-048>051-090-091-262100-
...NORTHEAST COLORADO...

CITY           SKY/WX    TMP DP  RH WIND       PRES   REMARKS
GREELEY ARPT   FAIR      39   4  23 VRB3      29.81F
AKRON          FAIR      37  10  32 S14G23    29.82F
BURLINGTON     FAIR      43   7  22 S8G17     29.84F
WRAY           NOT AVBL
STERLING       FAIR      34  16  47 SW3       29.84F
HOLYOKE        FAIR      41  12  30 NW6       29.86F
FORT MORGAN    FAIR      37   9  30 SE6       29.82F
$$

COZ086-089-092>099-262100-
...SOUTHEAST COLORADO...

CITY           SKY/WX    TMP DP  RH WIND       PRES   REMARKS
PUEBLO         FAIR      46  -2  13 VRB6G16   29.76F
LA JUNTA       FAIR      48   8  19 NE5       29.79F
LAMAR          FAIR      48   5  17 VRB7      29.81F
SPRINGFIELD      N/A     48   4  16 SW9G22    29.80F
$$




USA.gov is the U.S. government's official web portal to all federal, state and local government web resources and services.